User: anonymous   Login
Location: Unspecified
(0.0000°N, 0.0000°E)
Time: 23:36:48
(UTC+01:00)
Language:

Cosmos 1300 - Orbit

View from above orbital plane
View from above orbital plane
View from above satellite
View from above satellite

Ground track
Ground track

The orbit data is extracted from the following two-line orbital elements,

1 12785U 81082A   15061.50565751  .00006515  00000-0  36134-3 0  9996
2 12785 082.5067 179.9558 0000450 192.9361 293.2851 15.13611997824969
Epoch (UTC): 02 March 2015 12:08:08
Eccentricity: 0.0000450
inclination: 82.5067°
perigee height: 525 km
apogee height: 525 km
right ascension of ascending node: 179.9558°
argument of perigee: 192.9361°
revolutions per day: 15.13611997
mean anomaly at epoch: 293.2851°
orbit number at epoch: 82496

The dashed part of the orbit path shows where the satellite is in the earth's shadow,  

DLR